Regional Weather Roundup
Issued by NWS

Home | Current Version | Previous Version | Graphics & Text | Print | Product List | Glossary On
Versions: 1 2 3 4 5 6 7 8 9 10 11 12 13 14 15 16 17 18 19 20 21 22 23 24 25 26 27
000
ASUS45 KTFX 031510
RWRMT
MONTANA REGIONAL WEATHER ROUNDUP
NATIONAL WEATHER SERVICE GREAT FALLS MT
900 AM MDT TUE MAY 03 2016

NOTE: "FAIR" INDICATES FEW OR NO CLOUDS BELOW 12000 FEET WITH NO
SIGNIFICANT WEATHER AND/OR OBSTRUCTIONS TO VISIBILITY.

MTZ001>007-043-031600-
WEST OF THE DIVIDE

CITY           SKY/WX    TMP DP  RH WIND       PRES   REMARKS
KALISPELL      SUNNY     55  38  52 NE10      30.16S
MISSOULA       SUNNY     49  39  68 CALM      30.21S
BUTTE          SUNNY     47  29  49 NE3       30.24F
MULLAN PASS    SUNNY     58  30  34 CALM      30.23R
$$

MTZ008-052>055-031600-
SOUTHWEST MONTANA

CITY           SKY/WX    TMP DP  RH WIND       PRES   REMARKS
BOZEMAN        SUNNY     51  37  58 NW3       30.22S
DILLON         SUNNY     50  30  46 SW9       30.23S
ENNIS          SUNNY     48  28  46 CALM      30.29S
$$

MTZ009-010-012-014-046-048-049-054-031600-
EAST SLOPES AND CENTRAL MONTANA

CITY           SKY/WX    TMP DP  RH WIND       PRES   REMARKS
CUT BANK       SUNNY     55  38  52 VRB3      30.11F
GREAT FALLS    SUNNY     58  38  47 SW12      30.12S
MALMSTROM AFB  SUNNY     55  39  53 S2        30.13S
HELENA         SUNNY     50  32  50 CALM      30.20S
$$

MTZ011-013-016-021-045-047-050-051-031600-
NORTH CENTRAL MONTANA

CITY           SKY/WX    TMP DP  RH WIND       PRES   REMARKS
HAVRE          SUNNY     54  44  69 W6        30.11S
LEWISTOWN      SUNNY     61  39  44 MISG      30.15S
N BAR RANCH      N/A     61  37  41 CALM      30.18S
$$

MTZ017>020-022>027-061-062-031600-
NORTHEAST MONTANA

CITY           SKY/WX    TMP DP  RH WIND       PRES   REMARKS
GLASGOW        SUNNY     57  44  62 W5        30.09R
JORDAN           N/A     61  46  57 W5        30.10S
SIDNEY         SUNNY     57  39  51 S5        30.08S
WOLF POINT     SUNNY     58  41  53 SW5       30.09S
$$

MTZ028>42-056>058-031600-
SOUTHCENTRAL AND SOUTHEAST MONTANA

CITY           SKY/WX    TMP DP  RH WIND       PRES   REMARKS
BAKER          SUNNY     57  41  55 W9        30.11R
BILLINGS       MOSUNNY   53  37  54 SW12      30.17S
LIVINGSTON     SUNNY     57  32  38 NW13      30.19F
MILES CITY     SUNNY     59  43  55 W5        30.11S
$$

REGIONAL REPORTS...DAKOTAS

CITY           SKY/WX    TMP DP  RH WIND       PRES   REMARKS
WILLISTON      SUNNY     58  39  49 SW3       30.06S
MINOT          SUNNY     66  34  30 NW16      30.00R
DICKINSON      SUNNY     61  38  42 NW10      30.05R
BISMARCK       SUNNY     60  41  49 W7        30.00F
GRAND FORKS    MOSUNNY   63  37  38 N23       29.85S
FARGO          MOSUNNY   63  41  44 W14       29.87F
BUFFALO SD       N/A     62  40  44 NW15      30.03R
RAPID CITY     SUNNY     60  38  43 NW8       30.11R
$$

REGIONAL REPORTS...WYOMING/IDAHO/WASHINGTON

CITY           SKY/WX    TMP DP  RH WIND       PRES   REMARKS
GILLETTE       SUNNY     57  39  51 W13       30.17R
SHERIDAN       SUNNY     60  39  45 CALM      30.18S
BUFFALO WY     SUNNY     60  33  36 N8        30.21S
CODY           SUNNY     57  30  35 CALM      30.21S
YELLOWSTONE LA   N/A     36  24  62 E3        30.37S
IDAHO FALLS    SUNNY     50  30  46 N5        30.27R
SALMON         SUNNY     45  32  61 CALM      30.24F
BOISE          SUNNY     59  34  39 N3        30.15R
SPOKANE        MOSUNNY   58  42  55 NE12      30.08F
$$

REGIONAL REPORTS...ALBERTA

CITY           SKY/WX    TMP DP  RH WIND       PRES   REMARKS
EDMONTON       MOSUNNY   63  39  42 SW6       29.95S
CALGARY        MOSUNNY   68  36  30 N13       30.05R
LETHBRIDGE     SUNNY     66  36  32 SW13      30.05S
MEDICINE HAT   MOSUNNY   61  43  51 CALM      30.06S
WATERTON GATE    N/A     64  34  32 SW14G21     N/A
CARDSTON         N/A     66  37  34 SW3         N/A
ONEFOUR          N/A     57  43  58 SE8         N/A
$$

REGIONAL REPORTS...SASKATCHEWAN

CITY           SKY/WX    TMP DP  RH WIND       PRES   REMARKS
SWIFT CURRENT  SUNNY     64  41  42 W7        30.07S
REGINA         MOSUNNY   64  36  34 SE6       30.07R
SASKATOON      MOSUNNY   66  41  39 SE9       30.05S
CYPRESS HILLS    N/A     66  34  30 W6          N/A
VAL MARIE        N/A     61  39  44 NW1         N/A
ROCKGLEN         N/A     68  36  30 N6          N/A
ASSINIBOIA       N/A     66  41  39 S8          N/A
$$




USA.gov is the U.S. government's official web portal to all federal, state and local government web resources and services.